EW9998 Weather Reports


time (UTC)temp
C
wind
direction
speed
KPH
gust
KPH
rain 1hr
cm
rain 24hr
cm
rain mn
cm
humidity
%
barometer
mb
20260503050049 -1 360 0.0 1.6 0.00 0.20 0.00 89 1011.4
20260503044549 -1 183 0.0 1.6 0.00 0.20 0.00 89 1011.3
20260503043035 -1 184 0.0 1.6 0.00 0.20 0.00 88 1011.4
20260503041536 -1 183 0.0 0.0 0.00 0.20 0.00 86 1011.5
20260503040032 0 184 0.0 0.0 0.00 0.28 0.20 86 1011.5
20260503034529 0 183 0.0 1.6 0.00 0.28 0.20 84 1011.4
20260503033026 0 184 0.0 0.0 0.00 0.28 0.20 82 1011.4
20260503031524 0 184 0.0 0.0 0.00 0.28 0.20 81 1011.6
20260503030022 0 184 0.0 0.0 0.00 0.36 0.20 79 1011.5
20260503024509 1 184 0.0 0.0 0.00 0.36 0.20 78 1011.6
20260503023008 1 184 0.0 0.0 0.00 0.36 0.20 77 1011.7
20260503021510 1 184 0.0 0.0 0.00 0.36 0.20 76 1011.7
20260503020004 2 184 0.0 0.0 0.00 0.51 0.20 72 1011.6
20260503014559 2 184 0.0 0.0 0.00 0.51 0.20 72 1011.4
20260503013058 3 184 0.0 0.0 0.00 0.51 0.20 69 1011.4
20260503011604 3 184 0.0 0.0 0.00 0.51 0.20 67 1011.4
20260503010058 4 183 0.0 0.0 0.00 0.51 0.20 64 1011.1
20260503004534 5 183 0.0 0.0 0.00 0.51 0.20 62 1011.0
20260503003034 5 183 0.0 0.0 0.00 0.51 0.20 57 1010.8
20260503001517 6 183 0.0 0.0 0.00 0.51 0.20 55 1010.8
20260503000017 6 182 0.0 1.6 0.00 0.51 0.20 49 1010.7
20260502234512 6 360 0.0 3.2 0.00 0.51 0.20 47 1010.5
20260502233004 7 360 0.0 0.0 0.00 0.51 0.20 45 1010.4
20260502231503 7 360 0.0 1.6 0.00 0.51 0.20 44 1010.3
20260502230003 8 281 0.0 4.8 0.00 0.51 0.20 42 1010.1
20260502224502 8 360 3.2 14.5 0.00 0.51 0.20 40 1010.0
20260502223101 8 360 1.6 6.4 0.00 0.51 0.20 39 1009.8
20260502221605 9 360 0.0 6.4 0.00 0.51 0.20 38 1009.8
20260502220143 9 360 0.0 6.4 0.00 0.51 0.20 36 1009.8
20260502214541 8 360 1.6 4.8 0.00 0.51 0.20 39 1009.8
20260502213042 8 360 0.0 8.0 0.00 0.51 0.20 39 1009.8
20260502211528 9 360 0.0 6.4 0.00 0.51 0.20 40 1009.8
20260502210027 8 360 3.2 12.9 0.00 0.51 0.20 39 1009.8
20260502204527 9 286 0.0 6.4 0.00 0.51 0.20 40 1009.7
20260502203026 8 360 0.0 8.0 0.00 0.51 0.20 42 1009.9
20260502201535 9 360 1.6 8.0 0.00 0.51 0.20 41 1009.9
20260502200027 9 220 3.2 8.0 0.00 0.51 0.20 39 1009.9
20260502194536 10 360 0.0 4.8 0.00 0.51 0.20 39 1010.0
20260502193029 10 254 0.0 9.7 0.00 0.51 0.20 39 1010.0
20260502191619 9 360 0.0 12.9 0.00 0.51 0.20 40 1010.1
20260502190110 8 360 3.2 8.0 0.00 0.51 0.20 41 1010.3
20260502184542 8 360 0.0 3.2 0.00 0.51 0.20 41 1010.3
20260502183050 8 360 1.6 6.4 0.00 0.51 0.20 42 1010.3
20260502181526 9 360 0.0 9.7 0.00 0.51 0.20 40 1010.1
20260502163047 8 360 4.8 16.1 0.00 0.51 0.20 43 1010.5
20260502161510 9 360 0.0 9.7 0.00 0.51 0.20 44 1010.4
20260502151527 8 360 3.2 14.5 0.00 0.51 0.20 50 1010.6
20260502130110 5 261 0.0 0.0 0.00 0.51 0.20 81 1011.3
20260502123058 5 265 0.0 0.0 0.00 0.51 0.20 81 1011.3
20260502121549 4 270 0.0 0.0 0.00 0.51 0.20 85 1011.2
20260502114547 3 300 0.0 0.0 0.00 0.51 0.20 88 1011.3
20260502113039 3 302 0.0 0.0 0.00 0.51 0.20 88 1011.4
20260502111536 3 309 0.0 0.0 0.00 0.51 0.20 88 1011.3
20260502110035 3 310 0.0 0.0 0.00 0.51 0.20 88 1011.0
20260502104532 4 204 0.0 0.0 0.00 0.51 0.20 89 1010.9
20260502103011 4 273 0.0 0.0 0.00 0.51 0.20 89 1010.7
20260502101507 4 274 0.0 4.8 0.00 0.51 0.20 89 1010.3
20260502091524 5 282 1.6 6.4 0.05 0.51 0.20 93 1009.7
20260502071520 5 192 0.0 0.0 0.05 0.41 0.10 95 1009.4
20260502064600 5 192 0.0 0.0 0.00 0.36 0.05 95 1009.6
20260502063043 5 192 0.0 0.0 0.00 0.36 0.05 95 1009.7
20260502061540 5 192 0.0 0.0 0.03 0.36 0.05 95 1009.9
20260502060022 5 192 0.0 0.0 0.03 0.36 0.05 94 1009.9
20260502054526 6 192 0.0 0.0 0.03 0.36 0.05 94 1010.0
20260502053003 5 192 0.0 0.0 0.03 0.36 0.05 94 1009.9